| time (UTC) | temp F | wind direction | speed MPH | gust MPH | rain 1hr in | rain 24hr in | rain mn in | humidity % | barometer mb |
| 20260506081436 | 56 | 180 | 5.0 | 7.0 | 0.00 | 0.47 | 0.00 | 83 | 1006.6 |
| 20260506080416 | 56 | 180 | 6.0 | 7.0 | 0.00 | 0.47 | 0.00 | 85 | 1006.6 |
| 20260506073436 | 55 | 203 | 7.0 | 9.0 | 0.00 | 0.47 | 0.00 | 88 | 1006.7 |
| 20260506072416 | 55 | 203 | 5.0 | 8.0 | 0.00 | 0.47 | 0.00 | 90 | 1006.6 |
| 20260506071436 | 54 | 180 | 2.0 | 4.0 | 0.00 | 0.47 | 0.00 | 91 | 1006.4 |
| 20260506070416 | 54 | 158 | 3.0 | 5.0 | 0.00 | 0.47 | 0.00 | 91 | 1006.4 |
| 20260506062416 | 53 | 180 | 3.0 | 6.0 | 0.00 | 0.47 | 0.00 | 91 | 1006.3 |
| 20260506061416 | 53 | 225 | 4.0 | 7.0 | 0.00 | 0.47 | 0.00 | 91 | 1006.6 |
| 20260506060416 | 52 | 225 | 3.0 | 6.0 | 0.00 | 0.47 | 0.00 | 92 | 1006.6 |
| 20260506051416 | 52 | 203 | 4.0 | 6.0 | 0.00 | 0.47 | 0.00 | 92 | 1006.5 |
| 20260506050416 | 52 | 180 | 5.0 | 7.0 | 0.00 | 0.47 | 0.00 | 92 | 1006.5 |
| 20260506044416 | 52 | 180 | 6.0 | 7.0 | 0.00 | 0.47 | 0.00 | 92 | 1006.1 |
| 20260506043415 | 52 | 203 | 6.0 | 7.0 | 0.00 | 0.47 | 0.00 | 92 | 1006.1 |
| 20260506042416 | 52 | 158 | 3.0 | 4.0 | 0.00 | 0.47 | 0.00 | 92 | 1006.1 |
| 20260506041415 | 52 | 203 | 6.0 | 12.0 | 0.00 | 0.47 | 0.00 | 92 | 1006.1 |
| 20260506040415 | 52 | 203 | 3.0 | 6.0 | 0.00 | 0.47 | 0.00 | 92 | 1006.1 |
| 20260506035415 | 52 | 225 | 2.0 | 4.0 | 0.00 | 0.47 | 0.00 | 92 | 1006.0 |
| 20260506034456 | 52 | 203 | 7.0 | 10.0 | 0.00 | 0.47 | 0.00 | 92 | 1006.2 |
| 20260506033415 | 52 | 203 | 5.0 | 12.0 | 0.00 | 0.47 | 0.00 | 92 | 1006.2 |
| 20260506032536 | 52 | 203 | 5.0 | 7.0 | 0.00 | 0.47 | 0.00 | 92 | 1006.2 |
| 20260506031415 | 52 | 225 | 4.0 | 5.0 | 0.00 | 0.47 | 0.00 | 92 | 1006.4 |
| 20260506030436 | 52 | 203 | 4.0 | 7.0 | 0.00 | 0.47 | 0.00 | 92 | 1006.4 |
| 20260506025415 | 52 | 158 | 5.0 | 7.0 | 0.00 | 0.47 | 0.00 | 92 | 1006.3 |
| 20260506024416 | 52 | 203 | 4.0 | 6.0 | 0.00 | 0.47 | 0.00 | 92 | 1006.5 |
| 20260506023415 | 52 | 203 | 2.0 | 4.0 | 0.00 | 0.47 | 0.00 | 92 | 1006.5 |
| 20260506022436 | 52 | 225 | 3.0 | 5.0 | 0.00 | 0.47 | 0.00 | 92 | 1006.6 |
| 20260506021416 | 52 | 180 | 4.0 | 5.0 | 0.00 | 0.47 | 0.00 | 92 | 1006.3 |
| 20260506020415 | 52 | 225 | 5.0 | 6.0 | 0.00 | 0.47 | 0.00 | 92 | 1006.3 |
| 20260506015415 | 52 | 225 | 6.0 | 9.0 | 0.00 | 0.47 | 0.00 | 92 | 1006.1 |
| 20260506014415 | 52 | 203 | 4.0 | 6.0 | 0.00 | 0.47 | 0.00 | 92 | 1006.7 |
| 20260506013415 | 52 | 180 | 4.0 | 5.0 | 0.00 | 0.47 | 0.00 | 92 | 1006.7 |
| 20260506012415 | 52 | 225 | 2.0 | 3.0 | 0.00 | 0.47 | 0.00 | 92 | 1006.8 |
| 20260506011415 | 52 | 225 | 1.0 | 3.0 | 0.00 | 0.47 | 0.00 | 92 | 1006.6 |
| 20260506010415 | 52 | 225 | 3.0 | 4.0 | 0.00 | 0.47 | 0.00 | 92 | 1006.6 |
| 20260506005415 | 52 | 225 | 3.0 | 5.0 | 0.00 | 0.47 | 0.00 | 91 | 1006.5 |
| 20260506004415 | 52 | 0.0 | 0.0 | 0.00 | 0.47 | 0.00 | 92 | 1006.6 | |
| 20260506003415 | 52 | 225 | 2.0 | 4.0 | 0.00 | 0.47 | 0.00 | 92 | 1006.6 |
| 20260506002417 | 52 | 225 | 2.0 | 3.0 | 0.00 | 0.47 | 0.00 | 91 | 1006.5 |
| 20260506001437 | 53 | 225 | 3.0 | 6.0 | 0.00 | 0.47 | 0.00 | 91 | 1006.8 |
| 20260506000417 | 53 | 203 | 4.0 | 5.0 | 0.00 | 0.47 | 0.00 | 91 | 1006.8 |
| 20260505235417 | 53 | 203 | 3.0 | 6.0 | 0.00 | 0.47 | 0.00 | 91 | 1007.0 |
| 20260505234417 | 53 | 180 | 3.0 | 6.0 | 0.00 | 0.47 | 0.00 | 91 | 1006.9 |
| 20260505233417 | 53 | 225 | 4.0 | 10.0 | 0.00 | 0.47 | 0.00 | 91 | 1006.9 |
| 20260505232417 | 53 | 180 | 2.0 | 6.0 | 0.00 | 0.47 | 0.00 | 91 | 1007.0 |
| 20260505231417 | 53 | 180 | 1.0 | 3.0 | 0.00 | 0.47 | 0.00 | 91 | 1006.9 |
| 20260505230417 | 53 | 180 | 2.0 | 5.0 | 0.00 | 0.47 | 0.00 | 91 | 1006.9 |
| 20260505225417 | 53 | 0.0 | 0.0 | 0.00 | 0.47 | 0.00 | 91 | 1007.0 | |
| 20260505224417 | 53 | 203 | 2.0 | 3.0 | 0.00 | 0.47 | 0.00 | 91 | 1006.9 |
| 20260505223417 | 53 | 203 | 3.0 | 5.0 | 0.00 | 0.47 | 0.00 | 91 | 1006.7 |
| 20260505222417 | 53 | 0.0 | 2.0 | 0.00 | 0.47 | 0.00 | 90 | 1006.7 | |
| 20260505221417 | 53 | 203 | 1.0 | 1.0 | 0.00 | 0.47 | 0.00 | 91 | 1007.0 |
| 20260505220417 | 53 | 0.0 | 0.0 | 0.00 | 0.47 | 0.00 | 90 | 1007.0 | |
| 20260505215435 | 54 | 0.0 | 0.0 | 0.00 | 0.47 | 0.47 | 90 | 1006.7 | |
| 20260505214416 | 54 | 0.0 | 0.0 | 0.00 | 0.47 | 0.47 | 90 | 1007.1 | |
| 20260505213456 | 54 | 0.0 | 0.0 | 0.00 | 0.47 | 0.47 | 90 | 1007.0 | |
| 20260505212435 | 53 | 315 | 1.0 | 3.0 | 0.00 | 0.47 | 0.47 | 90 | 1007.0 |
| 20260505211415 | 53 | 0.0 | 0.0 | 0.00 | 0.47 | 0.47 | 90 | 1007.3 | |
| 20260505210415 | 53 | 0.0 | 0.0 | 0.00 | 0.47 | 0.47 | 89 | 1007.2 | |
| 20260505205415 | 53 | 0.0 | 0.0 | 0.00 | 0.47 | 0.47 | 89 | 1007.1 | |
| 20260505204416 | 53 | 0.0 | 0.0 | 0.00 | 0.47 | 0.47 | 89 | 1006.6 | |
| 20260505203415 | 54 | 0.0 | 0.0 | 0.00 | 0.47 | 0.47 | 89 | 1006.5 | |
| 20260505202415 | 54 | 0.0 | 0.0 | 0.00 | 0.47 | 0.47 | 89 | 1006.5 | |
| 20260505201415 | 54 | 0.0 | 0.0 | 0.00 | 0.47 | 0.47 | 89 | 1006.6 | |
| 20260505200415 | 54 | 315 | 1.0 | 2.0 | 0.00 | 0.47 | 0.47 | 89 | 1006.6 |
| 20260505195415 | 54 | 0.0 | 0.0 | 0.00 | 0.47 | 0.47 | 89 | 1006.6 | |
| 20260505194424 | 54 | 0.0 | 1.0 | 0.00 | 0.47 | 0.47 | 89 | 1006.3 | |
| 20260505193515 | 55 | 315 | 1.0 | 3.0 | 0.00 | 0.47 | 0.47 | 89 | 1006.3 |
| 20260505192515 | 55 | 0.0 | 0.0 | 0.02 | 0.47 | 0.47 | 88 | 1006.0 | |
| 20260505191515 | 55 | 90 | 1.0 | 3.0 | 0.02 | 0.47 | 0.47 | 88 | 1005.8 |
| 20260505190515 | 55 | 0.0 | 0.0 | 0.03 | 0.47 | 0.47 | 88 | 1005.9 | |
| 20260505185507 | 55 | 0.0 | 0.0 | 0.09 | 0.47 | 0.47 | 88 | 1005.9 | |
| 20260505184817 | 55 | 90 | 1.0 | 2.0 | 0.15 | 0.47 | 0.47 | 88 | 1005.8 |
| 20260505183837 | 55 | 90 | 3.0 | 5.0 | 0.29 | 0.47 | 0.47 | 87 | 1005.8 |
| 20260505182817 | 56 | 248 | 1.0 | 4.0 | 0.32 | 0.46 | 0.46 | 86 | 1005.6 |
| 20260505181817 | 56 | 293 | 7.0 | 13.0 | 0.44 | 0.45 | 0.45 | 86 | 1005.6 |
| 20260505180817 | 56 | 293 | 9.0 | 14.0 | 0.44 | 0.44 | 0.44 | 84 | 1006.0 |
| 20260505175817 | 57 | 270 | 7.0 | 19.0 | 0.39 | 0.39 | 0.39 | 83 | 1006.4 |
| 20260505174817 | 59 | 248 | 14.0 | 21.0 | 0.32 | 0.32 | 0.32 | 80 | 1006.4 |
| 20260505173837 | 64 | 203 | 16.0 | 20.0 | 0.18 | 0.18 | 0.18 | 79 | 1004.8 |
| 20260505172837 | 65 | 270 | 3.0 | 6.0 | 0.14 | 0.14 | 0.14 | 77 | 1004.6 |
| 20260505171855 | 65 | 225 | 2.0 | 4.0 | 0.01 | 0.01 | 0.01 | 74 | 1004.5 |
| 20260505170817 | 66 | 270 | 4.0 | 6.0 | 0.00 | 0.00 | 0.00 | 72 | 1004.3 |
| 20260505165837 | 66 | 0 | 2.0 | 4.0 | 0.00 | 0.00 | 0.00 | 71 | 1004.4 |
| 20260505164837 | 67 | 338 | 2.0 | 4.0 | 0.00 | 0.00 | 0.00 | 70 | 1004.5 |
| 20260505163817 | 67 | 338 | 2.0 | 5.0 | 0.00 | 0.00 | 0.00 | 69 | 1004.5 |
| 20260505162817 | 67 | 338 | 4.0 | 6.0 | 0.00 | 0.00 | 0.00 | 69 | 1004.8 |
| 20260505161817 | 67 | 338 | 7.0 | 13.0 | 0.00 | 0.00 | 0.00 | 69 | 1004.8 |
| 20260505160817 | 67 | 0 | 6.0 | 11.0 | 0.00 | 0.00 | 0.00 | 68 | 1004.7 |
| 20260505152816 | 68 | 0 | 5.0 | 10.0 | 0.00 | 0.00 | 0.00 | 66 | 1004.9 |
| 20260505151816 | 68 | 0 | 5.0 | 9.0 | 0.00 | 0.00 | 0.00 | 65 | 1004.9 |
| 20260505150817 | 69 | 0 | 7.0 | 10.0 | 0.00 | 0.00 | 0.00 | 63 | 1005.1 |
| 20260505124816 | 76 | 0.0 | 1.0 | 0.00 | 0.00 | 0.00 | 43 | 1005.7 | |
| 20260505123816 | 76 | 248 | 4.0 | 6.0 | 0.00 | 0.00 | 0.00 | 43 | 1006.0 |
| 20260505122816 | 76 | 270 | 3.0 | 6.0 | 0.00 | 0.00 | 0.00 | 44 | 1006.1 |
| 20260505121816 | 76 | 135 | 1.0 | 2.0 | 0.00 | 0.00 | 0.00 | 43 | 1006.1 |
| 20260505120816 | 75 | 135 | 2.0 | 4.0 | 0.00 | 0.00 | 0.00 | 44 | 1006.1 |
| 20260505115816 | 75 | 180 | 2.0 | 9.0 | 0.00 | 0.00 | 0.00 | 44 | 1006.3 |
| 20260505114816 | 76 | 248 | 3.0 | 6.0 | 0.00 | 0.00 | 0.00 | 47 | 1006.3 |
| 20260505113816 | 75 | 45 | 4.0 | 5.0 | 0.00 | 0.00 | 0.00 | 48 | 1006.5 |
| 20260505112816 | 75 | 315 | 1.0 | 4.0 | 0.00 | 0.00 | 0.00 | 49 | 1006.6 |
| 20260505111816 | 75 | 338 | 3.0 | 6.0 | 0.00 | 0.00 | 0.00 | 48 | 1006.6 |
| 20260505110816 | 76 | 293 | 3.0 | 6.0 | 0.00 | 0.00 | 0.00 | 47 | 1006.6 |
| 20260505101816 | 74 | 203 | 1.0 | 4.0 | 0.00 | 0.00 | 0.00 | 51 | 1007.1 |
| 20260505100836 | 74 | 203 | 3.0 | 5.0 | 0.00 | 0.00 | 0.00 | 51 | 1007.1 |
| 20260505095816 | 73 | 270 | 2.0 | 3.0 | 0.00 | 0.00 | 0.00 | 52 | 1007.2 |
| 20260505094816 | 73 | 270 | 2.0 | 4.0 | 0.00 | 0.00 | 0.00 | 53 | 1007.2 |
| 20260505093816 | 73 | 270 | 1.0 | 3.0 | 0.00 | 0.00 | 0.00 | 55 | 1007.6 |
| 20260505092816 | 73 | 270 | 1.0 | 3.0 | 0.00 | 0.00 | 0.00 | 56 | 1007.8 |
| 20260505091839 | 72 | 270 | 1.0 | 3.0 | 0.00 | 0.00 | 0.00 | 57 | 1007.8 |
| 20260505090816 | 71 | 225 | 1.0 | 2.0 | 0.00 | 0.00 | 0.00 | 59 | 1007.9 |
| 20260505085816 | 70 | 113 | 1.0 | 2.0 | 0.00 | 0.00 | 0.00 | 59 | 1008.0 |
| 20260505084816 | 70 | 90 | 2.0 | 4.0 | 0.00 | 0.00 | 0.00 | 60 | 1008.2 |
| 20260505083827 | 69 | 315 | 3.0 | 4.0 | 0.00 | 0.00 | 0.00 | 59 | 1008.1 |
| 20260505082815 | 69 | 23 | 1.0 | 2.0 | 0.00 | 0.00 | 0.00 | 61 | 1008.3 |